Friday Harbor, WA
on Wednesday, January 16, 2013

Wednesday
Previous Day Next Day
Daily Summary
 ActualAverageRecord
Temperature
Mean Temperature °F °F  
Max Temperature 41°F 44°F 54°F (2005)
Min Temperature 34°F 36°F 26°F (2001)
Degree Days
Heating Degree Days 28    
Moisture
Dew Point 32°F   
Average Humidity 81    
Maximum Humidity 89    
Minimum Humidity 70    
Precipitation
Precipitation 0.00 in in in ()
Wind
Wind Speed 1 mph   
Max Wind Speed 5 mph   
Max Gust Speed mph   
Visibility 10 miles   
Events     
Averages and records for this station are not official NWS values.
Key: T is trace of precipitation, MM is missing value
Source: NWS Daily Summary
Seasonal Weather Averages
Time(PST)TemperatureDew PointHumidity Pressure Visibility Wind DirectionWind SpeedGust SpeedPrecipitationEvents Conditions
12:53 AM 37.9°F 33.1°F 83% 30.69 in 10.0 miles Calm Calm - N/A   Overcast
1:53 AM 37.9°F 33.1°F 83% 30.70 in 10.0 miles Calm Calm - N/A   Overcast
2:53 AM 37.9°F 33.1°F 83% 30.70 in 10.0 miles Calm Calm - N/A   Overcast
3:53 AM 37.0°F 34.0°F 89% 30.69 in 10.0 miles Calm Calm - N/A   Overcast
4:53 AM 37.0°F 33.1°F 86% 30.68 in 10.0 miles Calm Calm - N/A   Overcast
5:53 AM 37.9°F 33.1°F 83% 30.66 in 10.0 miles Calm Calm - N/A   Overcast
6:53 AM 37.9°F 32.0°F 79% 30.65 in 10.0 miles Calm Calm - N/A   Overcast
7:53 AM 37.9°F 33.1°F 83% 30.66 in 10.0 miles Calm Calm - N/A   Overcast
8:53 AM 37.9°F 32.0°F 79% 30.66 in 10.0 miles Calm Calm - N/A   Overcast
9:53 AM 39.0°F 32.0°F 76% 30.66 in 10.0 miles NNE 3.5 mph - N/A   Overcast
10:53 AM 39.9°F 32.0°F 73% 30.66 in 10.0 miles Calm Calm - N/A   Overcast
11:15 AM 39.2°F 32.0°F 75% 30.65 in 10.0 miles NNE 3.5 mph - N/A   Scattered Clouds
11:53 AM 39.9°F 30.9°F 70% 30.65 in 10.0 miles North 3.5 mph - N/A   Mostly Cloudy
12:04 PM 41.0°F 32.0°F 70% 30.64 in 10.0 miles North 3.5 mph - N/A   Scattered Clouds
12:53 PM 41.0°F 32.0°F 70% 30.63 in - Variable 4.6 mph - N/A   Clear
2:53 PM 39.9°F 32.0°F 73% 30.61 in 10.0 miles Variable 4.6 mph - N/A   Clear
3:53 PM 39.0°F 32.0°F 76% 30.60 in 10.0 miles NNW 3.5 mph - N/A   Clear
4:53 PM 37.0°F 32.0°F 82% 30.60 in 10.0 miles Variable 3.5 mph - N/A   Clear
5:53 PM 35.1°F 30.9°F 85% 30.59 in 10.0 miles Calm Calm - N/A   Clear
6:53 PM 35.1°F 30.9°F 85% 30.58 in 10.0 miles Calm Calm - N/A   Clear
7:53 PM 34.0°F 30.9°F 89% 30.57 in 10.0 miles Calm Calm - N/A   Clear
8:53 PM 34.0°F 30.9°F 89% 30.56 in 10.0 miles Calm Calm - N/A   Clear
9:53 PM 36.0°F 30.9°F 82% 30.56 in 10.0 miles NW 4.6 mph - N/A   Clear
10:53 PM 34.0°F 30.0°F 85% 30.55 in 10.0 miles Variable 3.5 mph - N/A   Clear
11:53 PM 34.0°F 30.0°F 85% 30.55 in 10.0 miles Calm Calm - N/A   Clear
Moon Phase
Jan. 16 Jan. 18 Jan. 26 Feb. 03 Feb. 10
Sunrise:07:57 AM (PST) Moon Rise:10:05 AM (PST)1/16
Sunset:04:46 PM (PST) Moon Set:11:17 PM (PST)1/16

Copyright © 2014 The Weather Underground, Inc.